Time,TemperatureF,DewpointF,PressureIn,WindDirection,WindDirectionDegrees,WindSpeedMPH,WindSpeedGustMPH,Humidity,HourlyPrecipIn,Conditions,Clouds,dailyrainin,SoftwareType,DateUTC
2013-12-18 08:10:00,77.6,68.7,30.01,ENE,70,14.0,14.0,74,0.00,,,0.01,Wunderground v.1.15,2013-12-18 12:10:00,
2013-12-18 08:20:00,77.4,68.1,30.01,NE,49,13.0,13.0,73,0.00,,,0.01,Wunderground v.1.15,2013-12-18 12:20:00,
2013-12-18 08:30:00,77.6,69.4,30.03,NE,50,11.0,11.0,76,0.00,,,0.01,Wunderground v.1.15,2013-12-18 12:30:00,
2013-12-18 08:40:00,77.0,68.5,30.03,NE,39,11.0,11.0,75,0.00,,,0.01,Wunderground v.1.15,2013-12-18 12:40:00,
2013-12-18 08:50:00,77.2,69.0,30.03,ENE,61,10.0,10.0,76,0.00,,,0.01,Wunderground v.1.15,2013-12-18 12:50:00,
2013-12-18 09:00:00,77.9,70.1,30.03,ENE,64,8.0,8.0,77,0.00,,,0.01,Wunderground v.1.15,2013-12-18 13:00:00,
2013-12-18 09:10:00,78.3,70.5,30.03,NE,45,5.0,11.0,77,0.00,,,0.01,Wunderground v.1.15,2013-12-18 13:10:00,
2013-12-18 09:20:00,79.9,70.5,30.03,ENE,57,9.0,9.0,73,0.00,,,0.01,Wunderground v.1.15,2013-12-18 13:20:00,
2013-12-18 09:30:00,80.3,71.3,30.03,ESE,108,11.0,11.0,74,0.00,,,0.01,Wunderground v.1.15,2013-12-18 13:30:00,
2013-12-18 09:40:00,81.4,72.7,30.03,SSE,153,10.0,10.0,75,0.00,,,0.01,Wunderground v.1.15,2013-12-18 13:40:00,
2013-12-18 09:50:00,80.9,71.8,30.03,ESE,105,10.0,10.0,74,0.00,,,0.01,Wunderground v.1.15,2013-12-18 13:50:00,
2013-12-18 10:00:00,80.1,71.1,30.04,ESE,117,11.0,11.0,74,0.00,,,0.01,Wunderground v.1.15,2013-12-18 14:00:00,
2013-12-18 10:10:00,80.5,71.0,30.03,ENE,77,11.0,14.0,73,0.00,,,0.01,Wunderground v.1.15,2013-12-18 14:10:00,
2013-12-18 10:20:00,80.9,70.6,30.03,East,97,11.0,11.0,71,0.00,,,0.01,Wunderground v.1.15,2013-12-18 14:20:00,
2013-12-18 10:30:00,81.1,71.2,30.03,ENE,73,11.0,11.0,72,0.00,,,0.01,Wunderground v.1.15,2013-12-18 14:30:00,
2013-12-18 10:40:00,81.4,71.9,30.02,East,84,11.0,11.0,73,0.00,,,0.01,Wunderground v.1.15,2013-12-18 14:40:00,
2013-12-18 10:50:00,81.6,72.1,30.02,East,80,10.0,10.0,73,0.00,,,0.01,Wunderground v.1.15,2013-12-18 14:50:00,
2013-12-18 11:00:00,82.0,71.7,30.02,East,84,9.0,14.0,71,0.00,,,0.01,Wunderground v.1.15,2013-12-18 15:00:00,
2013-12-18 11:10:00,81.8,72.3,30.02,NE,47,10.0,10.0,73,0.00,,,0.01,Wunderground v.1.15,2013-12-18 15:10:00,
2013-12-18 11:20:00,82.0,71.7,30.02,East,82,9.0,17.0,71,0.00,,,0.01,Wunderground v.1.15,2013-12-18 15:20:00,
2013-12-18 11:30:00,81.8,72.3,30.01,ENE,63,10.0,10.0,73,0.00,,,0.01,Wunderground v.1.15,2013-12-18 15:30:00,
2013-12-18 11:40:00,81.8,71.5,30.01,East,96,9.0,14.0,71,0.00,,,0.01,Wunderground v.1.15,2013-12-18 15:40:00,
2013-12-18 11:50:00,81.8,72.3,30.01,ENE,68,9.0,9.0,73,0.00,,,0.01,Wunderground v.1.15,2013-12-18 15:50:00,
2013-12-18 12:00:00,82.4,72.5,30.01,ENE,67,8.0,10.0,72,0.00,,,0.01,Wunderground v.1.15,2013-12-18 16:00:00,
2013-12-18 12:10:00,82.2,72.3,30.01,East,98,9.0,9.0,72,0.00,,,0.01,Wunderground v.1.15,2013-12-18 16:10:00,
2013-12-18 12:20:00,82.6,71.8,30.01,ENE,76,8.0,11.0,70,0.00,,,0.01,Wunderground v.1.15,2013-12-18 16:20:00,
2013-12-18 12:30:00,82.4,71.6,29.99,ESE,103,11.0,11.0,70,0.00,,,0.01,Wunderground v.1.15,2013-12-18 16:30:00,
2013-12-18 12:40:00,82.6,72.2,29.98,East,98,9.0,9.0,71,0.00,,,0.01,Wunderground v.1.15,2013-12-18 16:40:00,
2013-12-18 12:50:00,82.2,71.4,29.98,ENE,78,10.0,15.0,70,0.00,,,0.01,Wunderground v.1.15,2013-12-18 16:50:00,
2013-12-18 13:00:00,82.2,71.9,29.98,ESE,109,9.0,10.0,71,0.00,,,0.01,Wunderground v.1.15,2013-12-18 17:00:00,
2013-12-18 13:10:00,82.2,72.3,29.97,ENE,66,9.0,11.0,72,0.00,,,0.01,Wunderground v.1.15,2013-12-18 17:10:00,
2013-12-18 13:20:00,82.6,72.7,29.97,ENE,65,9.0,9.0,72,0.00,,,0.01,Wunderground v.1.15,2013-12-18 17:20:00,
2013-12-18 13:30:00,82.4,72.5,29.96,ENE,78,10.0,10.0,72,0.00,,,0.01,Wunderground v.1.15,2013-12-18 17:30:00,
2013-12-18 13:40:00,82.2,71.9,29.96,East,91,9.0,10.0,71,0.00,,,0.01,Wunderground v.1.15,2013-12-18 17:40:00,
2013-12-18 13:50:00,82.4,72.0,29.96,ENE,68,8.0,9.0,71,0.00,,,0.01,Wunderground v.1.15,2013-12-18 17:50:00,
2013-12-18 14:00:00,82.6,71.8,29.96,East,88,9.0,9.0,70,0.00,,,0.01,Wunderground v.1.15,2013-12-18 18:00:00,
2013-12-18 14:10:00,82.2,71.0,29.96,ENE,69,9.0,15.0,69,0.00,,,0.01,Wunderground v.1.15,2013-12-18 18:10:00,
2013-12-18 14:20:00,82.2,71.4,29.96,East,81,10.0,12.0,70,0.00,,,0.01,Wunderground v.1.15,2013-12-18 18:20:00,
2013-12-18 14:30:00,81.8,71.5,29.95,East,80,10.0,10.0,71,0.00,,,0.01,Wunderground v.1.15,2013-12-18 18:30:00,
2013-12-18 14:40:00,82.0,71.7,29.95,East,79,10.0,10.0,71,0.00,,,0.01,Wunderground v.1.15,2013-12-18 18:40:00,
2013-12-18 14:50:00,81.8,71.5,29.95,East,92,11.0,11.0,71,0.00,,,0.01,Wunderground v.1.15,2013-12-18 18:50:00,
2013-12-18 15:00:00,81.8,71.5,29.95,East,101,10.0,10.0,71,0.00,,,0.01,Wunderground v.1.15,2013-12-18 19:00:00,
2013-12-18 15:10:00,81.6,71.7,29.95,ESE,103,11.0,11.0,72,0.00,,,0.01,Wunderground v.1.15,2013-12-18 19:10:00,
2013-12-18 15:20:00,81.2,70.9,29.95,ESE,103,11.0,11.0,71,0.00,,,0.01,Wunderground v.1.15,2013-12-18 19:20:00,
2013-12-18 15:30:00,81.4,71.5,29.95,ENE,61,10.0,11.0,72,0.00,,,0.01,Wunderground v.1.15,2013-12-18 19:30:00,
2013-12-18 15:40:00,81.1,71.6,29.95,ENE,67,11.0,11.0,73,0.00,,,0.01,Wunderground v.1.15,2013-12-18 19:40:00,
2013-12-18 15:50:00,80.9,71.4,29.95,SE,125,11.0,11.0,73,0.00,,,0.01,Wunderground v.1.15,2013-12-18 19:50:00,
2013-12-18 16:00:00,80.9,70.6,29.95,ENE,68,10.0,10.0,71,0.00,,,0.01,Wunderground v.1.15,2013-12-18 20:00:00,
2013-12-18 16:10:00,80.7,71.2,29.95,East,84,9.0,13.0,73,0.00,,,0.01,Wunderground v.1.15,2013-12-18 20:10:00,
2013-12-18 16:20:00,80.7,71.6,29.95,ENE,67,9.0,14.0,74,0.00,,,0.01,Wunderground v.1.15,2013-12-18 20:20:00,
2013-12-18 16:30:00,80.3,70.9,29.95,ENE,58,11.0,14.0,73,0.00,,,0.01,Wunderground v.1.15,2013-12-18 20:30:00,
2013-12-18 16:40:00,79.6,70.6,29.95,ENE,76,9.0,9.0,74,0.00,,,0.01,Wunderground v.1.15,2013-12-18 20:40:00,
2013-12-18 16:50:00,79.4,71.2,29.95,NE,43,6.0,6.0,76,0.00,,,0.01,Wunderground v.1.15,2013-12-18 20:50:00,
2013-12-18 17:00:00,78.8,72.1,29.95,ENE,75,9.0,9.0,80,0.00,,,0.01,Wunderground v.1.15,2013-12-18 21:00:00,
2013-12-18 17:10:00,76.0,71.8,29.95,ENE,72,9.0,12.0,87,0.08,,,0.03,Wunderground v.1.15,2013-12-18 21:10:00,
2013-12-18 17:20:00,75.1,71.6,29.95,NE,53,7.0,8.0,89,0.00,,,0.03,Wunderground v.1.15,2013-12-18 21:20:00,
2013-12-18 17:30:00,74.9,71.8,29.95,East,90,6.0,6.0,90,0.00,,,0.03,Wunderground v.1.15,2013-12-18 21:30:00,
2013-12-18 17:40:00,74.4,70.9,29.95,ESE,109,5.0,5.0,89,0.00,,,0.03,Wunderground v.1.15,2013-12-18 21:40:00,
2013-12-18 17:50:00,73.9,70.5,29.95,ENE,62,5.0,9.0,89,0.00,,,0.03,Wunderground v.1.15,2013-12-18 21:50:00,
2013-12-18 18:00:00,73.9,70.5,29.96,East,84,7.0,7.0,89,0.00,,,0.03,Wunderground v.1.15,2013-12-18 22:00:00,
2013-12-18 18:10:00,74.2,70.4,29.96,ENE,63,7.0,7.0,88,0.00,,,0.03,Wunderground v.1.15,2013-12-18 22:10:00,
2013-12-18 18:20:00,74.2,70.4,29.96,ENE,74,5.0,6.0,88,0.00,,,0.03,Wunderground v.1.15,2013-12-18 22:20:00,